Tracking 18794 objects as of 21-September-2017
HD Live streaming from Space Station
objects crossing your sky now

OKEAN O

Track OKEAN O now!
10-day predictions
OKEAN O is classified as:


NORAD ID: 25860
Int'l Code: 1999-039A
Perigee: 646.6 km
Apogee: 648.5 km
Inclination: 98.2 °
Period: 97.5 minutes
Semi major axis: 7018 km
RCS: 19.8052 m2 (large)
Launch date: July 17, 1999
Source: Commonwealth of Independent States (former USSR) (CIS)
Launch site: TYURATAM MISSILE AND SPACE COMPLEX (TTMTR)
aabbcc
Your satellite tracking list
Your tracking list is empty





NASA's NSSDC Master Catalog

Two Line Element Set (TLE):
1 25860U 99039A   17264.57750110 +.00000047 +00000-0 +14378-4 0  9995
2 25860 098.1952 250.8161 0001364 111.7662 248.3693 14.76497697977950
Source of the keplerian elements: AFSPC